Location: Devore Heights
(34.2372°N, 117.4156°W)
Time: 18:59:17
(UTC+00:00)

S-56A Canister/Altair - Pass Details

Date: 21 September 2024
Orbit: 636 x 2487 km, 38.9° (Epoch: 14 October)

Event Time Altitude Azimuth Distance (km) Brightness Sun altitude
Rises 00:28:19 0° 249° (WSW) 2,917 12.2 15.6°
Reaches altitude 10° 00:30:29 10° 249° (WSW) 2,030 11.9 15.2°
Maximum altitude 00:34:59 89° 339° (NNW) 713 7.7 14.3°
Drops below altitude 10° 00:40:39 10° 70° (ENE) 2,532 9.6 13.1°
Sets 00:43:38 0° 70° (ENE) 3,714 10.4 12.5°
